CPA13 VHHH-RKPC

Flight info

Callsign CPA13
Flight time N/A
Altitude 32000
Route A461 IDUMA W41 DOPKU G471 PLT A599 PUD A593 PONIK Y711
Aircraft B737/M-VGDW/C

Departure

Time 2026-05-07 13:35
Airport Hong Kong International Airport (VHHH)

Arrival

Time N/A
Airport Jeju International Airport (RKPC)
Time Latitude Longitude Altitude Speed Heading
2026-05-07 13:22 22.30890 113.92472 32 ft 0 kts 119°
2026-05-07 13:24 22.30895 113.92463 32 ft 2 kts 119°
2026-05-07 13:24 22.30903 113.92447 29 ft 2 kts 119°
2026-05-07 13:24 22.30913 113.92433 29 ft 2 kts 162°
2026-05-07 13:25 22.30927 113.92432 29 ft 0 kts 211°
2026-05-07 13:25 22.30923 113.92430 29 ft 1 kts 211°
2026-05-07 13:25 22.30921 113.92429 29 ft 0 kts 211°
2026-05-07 13:27 22.30904 113.92407 31 ft 8 kts 239°
2026-05-07 13:27 22.30864 113.92337 32 ft 12 kts 237°
2026-05-07 13:28 22.30838 113.92289 32 ft 5 kts 261°
2026-05-07 13:28 22.30821 113.92218 30 ft 15 kts 250°
2026-05-07 13:28 22.30751 113.92155 32 ft 13 kts 171°
2026-05-07 13:28 22.30662 113.92149 32 ft 13 kts 221°
2026-05-07 13:29 22.30624 113.92054 32 ft 15 kts 251°
2026-05-07 13:29 22.30587 113.91940 32 ft 17 kts 249°
2026-05-07 13:29 22.30547 113.91813 30 ft 19 kts 249°
2026-05-07 13:29 22.30501 113.91675 31 ft 20 kts 250°
2026-05-07 13:30 22.30454 113.91527 31 ft 21 kts 249°
2026-05-07 13:30 22.30405 113.91373 29 ft 22 kts 250°
2026-05-07 13:30 22.30364 113.91242 31 ft 12 kts 251°
2026-05-07 13:30 22.30343 113.91177 30 ft 10 kts 250°
2026-05-07 13:31 22.30316 113.91092 31 ft 14 kts 252°
2026-05-07 13:31 22.30280 113.90980 31 ft 17 kts 250°
2026-05-07 13:31 22.30238 113.90852 31 ft 19 kts 251°
2026-05-07 13:31 22.30196 113.90710 31 ft 20 kts 254°
2026-05-07 13:32 22.30147 113.90560 31 ft 22 kts 245°
2026-05-07 13:32 22.30095 113.90403 31 ft 23 kts 250°
2026-05-07 13:32 22.30044 113.90241 31 ft 23 kts 254°
2026-05-07 13:32 22.29990 113.90075 31 ft 24 kts 251°
2026-05-07 13:33 22.29935 113.89902 31 ft 25 kts 250°
2026-05-07 13:33 22.29855 113.89822 31 ft 10 kts 161°
2026-05-07 13:33 22.29804 113.89859 31 ft 10 kts 144°
2026-05-07 13:33 22.29739 113.89892 31 ft 11 kts 161°
2026-05-07 13:34 22.29682 113.89944 30 ft 11 kts 101°
2026-05-07 13:34 22.29848 113.90506 28 ft 112 kts 71°
2026-05-07 13:34 22.30185 113.91565 37 ft 182 kts 71°
2026-05-07 13:35 22.30605 113.92896 940 ft 187 kts 74°
2026-05-07 13:35 22.31013 113.94198 2151 ft 181 kts 70°
2026-05-07 13:35 22.31505 113.95457 2944 ft 181 kts 66°
2026-05-07 13:35 22.31986 113.96786 3274 ft 208 kts 75°
2026-05-07 13:36 22.32402 113.98415 3325 ft 240 kts 73°
2026-05-07 13:36 22.32950 114.00218 3751 ft 264 kts 71°
2026-05-07 13:36 22.33583 114.02125 4494 ft 273 kts 71°
2026-05-07 13:36 22.33965 114.04153 5344 ft 279 kts 87°
2026-05-07 13:37 22.33820 114.06236 6193 ft 285 kts 103°
2026-05-07 13:37 22.33128 114.08245 6987 ft 289 kts 122°
2026-05-07 13:37 22.31989 114.10056 7674 ft 294 kts 131°
2026-05-07 13:37 22.30448 114.11494 7971 ft 294 kts 151°
2026-05-07 13:38 22.28556 114.12288 7996 ft 290 kts 172°
2026-05-07 13:38 22.26564 114.12311 8009 ft 286 kts 192°
2026-05-07 13:38 22.24713 114.11588 8009 ft 283 kts 210°
2026-05-07 13:38 22.22997 114.10550 8013 ft 282 kts 210°
2026-05-07 13:39 22.21232 114.09606 8000 ft 283 kts 205°
2026-05-07 13:39 22.19365 114.08996 8001 ft 286 kts 188°
2026-05-07 13:39 22.17380 114.09114 8010 ft 289 kts 167°
2026-05-07 13:39 22.15542 114.09989 8010 ft 292 kts 147°
2026-05-07 13:40 22.14083 114.11530 8014 ft 295 kts 126°
2026-05-07 13:40 22.13207 114.13534 8011 ft 297 kts 105°
2026-05-07 13:40 22.13026 114.15716 8010 ft 298 kts 84°
2026-05-07 13:40 22.13522 114.17880 8010 ft 298 kts 69°
2026-05-07 13:41 22.14260 114.19974 8004 ft 298 kts 70°
2026-05-07 13:41 22.14872 114.22110 8009 ft 298 kts 76°
2026-05-07 13:41 22.15204 114.24311 8016 ft 297 kts 86°
2026-05-07 13:41 22.15454 114.26528 8004 ft 297 kts 81°
2026-05-07 13:42 22.15787 114.28729 8004 ft 298 kts 79°
2026-05-07 13:42 22.16241 114.30887 8000 ft 298 kts 76°
2026-05-07 13:42 22.16752 114.33056 8001 ft 298 kts 76°
2026-05-07 13:42 22.17231 114.35237 8004 ft 298 kts 77°
2026-05-07 13:43 22.17687 114.37427 8001 ft 299 kts 77°
2026-05-07 13:43 22.18196 114.39592 8005 ft 298 kts 69°
2026-05-07 13:43 22.19234 114.41516 8018 ft 297 kts 48°
2026-05-07 13:43 22.20819 114.42924 8044 ft 295 kts 26°
2026-05-07 13:44 22.22764 114.43583 8634 ft 292 kts
2026-05-07 13:44 22.24755 114.43439 9505 ft 292 kts 342°
2026-05-07 13:44 22.26664 114.42668 10302 ft 295 kts 334°
2026-05-07 13:44 22.28597 114.41778 10851 ft 309 kts 336°
2026-05-07 13:45 22.30721 114.41081 11257 ft 328 kts 346°
2026-05-07 13:45 22.33025 114.40691 11743 ft 342 kts 351°
2026-05-07 13:45 22.35416 114.40376 12365 ft 348 kts 349°
2026-05-07 13:45 22.37824 114.39936 13034 ft 353 kts 347°
2026-05-07 13:46 22.40220 114.39426 13712 ft 357 kts 347°
2026-05-07 13:46 22.42678 114.38943 14324 ft 361 kts 348°
2026-05-07 13:46 22.45174 114.38486 14932 ft 363 kts 346°
2026-05-07 13:46 22.47563 114.37621 15557 ft 361 kts 330°
2026-05-07 13:47 22.49607 114.36060 16169 ft 360 kts 314°
2026-05-07 13:47 22.51142 114.33935 16781 ft 359 kts 297°
2026-05-07 13:47 22.52040 114.31422 17387 ft 360 kts 282°
2026-05-07 13:47 22.52348 114.28728 17984 ft 362 kts 273°
2026-05-07 13:48 22.52451 114.26033 18512 ft 365 kts 272°
2026-05-07 13:48 22.52634 114.23278 18986 ft 368 kts 277°
2026-05-07 13:48 22.53078 114.20541 19478 ft 371 kts 282°
2026-05-07 13:48 22.53677 114.17814 19970 ft 373 kts 286°
2026-05-07 13:49 22.54662 114.15203 20468 ft 377 kts 297°
2026-05-07 13:49 22.56137 114.12839 20957 ft 381 kts 308°
2026-05-07 13:49 22.57356 114.11462 21285 ft 385 kts 316°
2026-05-07 13:49 22.59517 114.09722 21780 ft 390 kts 327°
2026-05-07 13:50 22.62837 114.08133 22425 ft 397 kts 339°
2026-05-07 13:50 22.65491 114.07239 22909 ft 401 kts 340°
2026-05-07 13:50 22.68146 114.06307 23386 ft 402 kts 337°
2026-05-07 13:50 22.69868 114.05542 23666 ft 403 kts 332°
2026-05-07 13:51 22.72380 114.04166 24049 ft 404 kts 329°
2026-05-07 13:51 22.74868 114.02723 24438 ft 407 kts 330°
2026-05-07 13:51 22.77442 114.01391 24818 ft 411 kts 333°
2026-05-07 13:51 22.80065 114.00122 25213 ft 413 kts 333°
2026-05-07 13:52 22.82648 113.98809 25639 ft 415 kts 332°
2026-05-07 13:52 22.85245 113.97432 26032 ft 417 kts 332°
2026-05-07 13:52 22.87867 113.96064 26571 ft 415 kts 332°
2026-05-07 13:52 22.90503 113.94811 27150 ft 414 kts 338°
2026-05-07 13:53 22.93295 113.94049 27729 ft 415 kts 349°
2026-05-07 13:53 22.96184 113.93864 28287 ft 417 kts 359°
2026-05-07 13:53 22.99068 113.94268 28849 ft 420 kts
2026-05-07 13:53 23.01860 113.95231 29405 ft 422 kts 18°
2026-05-07 13:54 23.04566 113.96480 29953 ft 422 kts 20°
2026-05-07 13:54 23.07231 113.97704 30409 ft 420 kts 18°
2026-05-07 13:54 23.09975 113.98774 30873 ft 417 kts 13°
2026-05-07 13:54 23.12777 113.99458 31334 ft 411 kts
2026-05-07 13:55 23.15610 113.99830 31777 ft 409 kts
2026-05-07 13:55 23.18455 114.00133 31978 ft 412 kts
2026-05-07 13:55 23.21291 114.00597 31982 ft 413 kts
2026-05-07 13:56 23.26933 114.01712 31986 ft 410 kts
2026-05-07 13:56 23.32555 114.02132 32004 ft 406 kts 353°
2026-05-07 13:57 23.38183 114.01555 32005 ft 407 kts 352°
2026-05-07 13:57 23.43849 114.01395 31997 ft 407 kts 355°
2026-05-07 13:58 23.49485 114.01127 32003 ft 407 kts 355°
2026-05-07 13:58 23.52343 114.01329 32013 ft 412 kts
2026-05-07 13:58 23.55125 114.02114 32014 ft 416 kts 17°
2026-05-07 13:59 23.60137 114.05336 32008 ft 423 kts 38°
2026-05-07 13:59 23.63915 114.10277 32011 ft 426 kts 52°
2026-05-07 14:00 23.67370 114.15462 32008 ft 424 kts 46°
2026-05-07 14:00 23.71616 114.19822 32008 ft 416 kts 31°
2026-05-07 14:01 23.76406 114.23372 32020 ft 417 kts 32°
2026-05-07 14:01 23.80939 114.27356 32011 ft 418 kts 34°
2026-05-07 14:02 23.85702 114.30940 32010 ft 415 kts 27°
2026-05-07 14:02 23.90537 114.34356 32015 ft 417 kts 30°
2026-05-07 14:03 23.95359 114.37908 32012 ft 418 kts 28°
2026-05-07 14:03 24.00225 114.41401 32008 ft 418 kts 28°
2026-05-07 14:04 24.05068 114.44935 32006 ft 418 kts 28°
2026-05-07 14:04 24.09892 114.48428 32009 ft 418 kts 28°
2026-05-07 14:05 24.14732 114.51953 32015 ft 418 kts 28°
2026-05-07 14:05 24.19599 114.55492 32021 ft 420 kts 28°
2026-05-07 14:06 24.24468 114.59041 32017 ft 420 kts 28°
2026-05-07 14:06 24.29315 114.62574 32028 ft 420 kts 28°
2026-05-07 14:07 24.34185 114.66129 32017 ft 420 kts 28°
2026-05-07 14:07 24.39060 114.69689 32023 ft 420 kts 28°
2026-05-07 14:08 24.43931 114.73251 32029 ft 421 kts 28°
2026-05-07 14:08 24.48826 114.76833 32027 ft 423 kts 28°
2026-05-07 14:09 24.53687 114.80395 32026 ft 422 kts 28°
2026-05-07 14:09 24.58588 114.83988 32025 ft 422 kts 28°
2026-05-07 14:10 24.63473 114.87574 32019 ft 422 kts 28°
2026-05-07 14:10 24.68344 114.91152 32040 ft 423 kts 28°
2026-05-07 14:11 24.73246 114.94756 32026 ft 424 kts 28°
2026-05-07 14:11 24.78262 114.98101 32030 ft 417 kts 17°
2026-05-07 14:11 24.80999 114.99083 32030 ft 412 kts
2026-05-07 14:12 24.83822 114.99524 32036 ft 408 kts 359°
2026-05-07 14:12 24.89472 114.99998 32035 ft 411 kts
2026-05-07 14:13 24.95099 115.01389 32042 ft 416 kts 10°
2026-05-07 14:13 25.00700 115.02857 32033 ft 411 kts
2026-05-07 14:14 25.06324 115.04157 32036 ft 413 kts
2026-05-07 14:14 25.11886 115.05563 32029 ft 411 kts
2026-05-07 14:15 25.17485 115.06905 32031 ft 412 kts
2026-05-07 14:15 25.23088 115.08291 32039 ft 412 kts
2026-05-07 14:16 25.28658 115.09649 32040 ft 412 kts
2026-05-07 14:16 25.34256 115.11024 32044 ft 411 kts
2026-05-07 14:17 25.39873 115.11194 32050 ft 401 kts 344°
2026-05-07 14:17 25.44984 115.09073 32054 ft 393 kts 323°
2026-05-07 14:18 25.49245 115.05306 32052 ft 393 kts 316°
2026-05-07 14:18 25.53583 115.01583 32047 ft 396 kts 322°
2026-05-07 14:19 25.58557 114.98856 32053 ft 401 kts 333°
2026-05-07 14:19 25.63662 114.96490 32051 ft 398 kts 329°
2026-05-07 14:20 25.68642 114.93798 32056 ft 399 kts 330°
2026-05-07 14:20 25.73705 114.91260 32056 ft 398 kts 330°
2026-05-07 14:21 25.78717 114.88649 32053 ft 398 kts 330°
2026-05-07 14:21 25.84054 114.86828 32058 ft 410 kts 348°
2026-05-07 14:21 25.86927 114.86767 32062 ft 416 kts 359°
2026-05-07 14:22 25.89761 114.87294 32069 ft 421 kts
2026-05-07 14:22 25.92529 114.88413 32062 ft 426 kts 20°
2026-05-07 14:22 25.95097 114.90089 32065 ft 432 kts 31°
2026-05-07 14:22 25.97387 114.92280 32071 ft 437 kts 42°
2026-05-07 14:23 25.99320 114.94919 32062 ft 442 kts 53°
2026-05-07 14:23 26.00818 114.97914 32059 ft 446 kts 64°
2026-05-07 14:23 26.01834 115.01173 32064 ft 448 kts 75°
2026-05-07 14:24 26.03079 115.07928 32063 ft 447 kts 75°
2026-05-07 14:24 26.04881 115.14533 32063 ft 445 kts 64°
2026-05-07 14:25 26.07897 115.20490 32062 ft 437 kts 46°
2026-05-07 14:25 26.12162 115.25158 32060 ft 431 kts 36°
2026-05-07 14:26 26.16451 115.29870 32061 ft 435 kts 45°
2026-05-07 14:26 26.20465 115.34923 32060 ft 434 kts 41°
2026-05-07 14:27 26.24657 115.39771 32059 ft 434 kts 43°
2026-05-07 14:27 26.28722 115.44710 32062 ft 437 kts 42°
2026-05-07 14:28 26.32896 115.49662 32063 ft 438 kts 42°
2026-05-07 14:28 26.37045 115.54650 32066 ft 438 kts 43°
2026-05-07 14:29 26.41170 115.59587 32065 ft 438 kts 42°
2026-05-07 14:29 26.45321 115.64572 32059 ft 438 kts 43°
2026-05-07 14:30 26.49471 115.69558 32062 ft 438 kts 43°
2026-05-07 14:30 26.53630 115.74559 32062 ft 440 kts 43°
2026-05-07 14:31 26.57766 115.79544 32064 ft 439 kts 43°
2026-05-07 14:31 26.61921 115.84552 32061 ft 439 kts 43°
2026-05-07 14:32 26.66080 115.89572 32064 ft 439 kts 43°
2026-05-07 14:32 26.70234 115.94592 32065 ft 439 kts 43°
2026-05-07 14:33 26.74366 115.99591 32068 ft 440 kts 43°
2026-05-07 14:33 26.78518 116.04622 32072 ft 440 kts 43°
2026-05-07 14:34 26.82651 116.09633 32067 ft 439 kts 43°
2026-05-07 14:34 26.86803 116.14673 32066 ft 440 kts 43°
2026-05-07 14:35 26.90956 116.19722 32069 ft 439 kts 43°
2026-05-07 14:35 26.95116 116.24754 32076 ft 440 kts 43°
2026-05-07 14:36 26.99262 116.29734 32074 ft 440 kts 43°
2026-05-07 14:36 27.03428 116.34770 32074 ft 440 kts 43°
2026-05-07 14:37 27.07598 116.39802 32075 ft 440 kts 43°
2026-05-07 14:37 27.13820 116.47331 32075 ft 440 kts 43°
2026-05-07 14:38 27.17986 116.52377 32074 ft 441 kts 43°
2026-05-07 14:38 27.22205 116.57398 32077 ft 440 kts 41°
2026-05-07 14:39 27.26424 116.62342 32078 ft 440 kts 42°
2026-05-07 14:39 27.30676 116.67283 32074 ft 440 kts 41°
2026-05-07 14:40 27.34216 116.71406 32077 ft 440 kts 42°
2026-05-07 14:40 27.38466 116.76375 32085 ft 440 kts 41°
2026-05-07 14:41 27.42732 116.81353 32070 ft 441 kts 41°
2026-05-07 14:41 27.46982 116.86330 32074 ft 441 kts 41°
2026-05-07 14:42 27.51216 116.91287 32077 ft 441 kts 41°
2026-05-07 14:42 27.55487 116.96244 32072 ft 440 kts 41°
2026-05-07 14:43 27.59759 117.01162 32092 ft 441 kts 41°
2026-05-07 14:43 27.64035 117.06125 32071 ft 441 kts 41°
2026-05-07 14:44 27.68326 117.11088 32080 ft 441 kts 41°
2026-05-07 14:44 27.72608 117.16061 32079 ft 441 kts 41°
2026-05-07 14:45 27.76883 117.21025 32080 ft 440 kts 40°
2026-05-07 14:45 27.81109 117.25941 32103 ft 439 kts 41°
2026-05-07 14:46 27.85377 117.30909 32084 ft 441 kts 41°
2026-05-07 14:46 27.89651 117.35895 32075 ft 439 kts 41°
2026-05-07 14:47 27.93901 117.40850 32088 ft 438 kts 41°
2026-05-07 14:47 27.98158 117.45830 32072 ft 439 kts 41°
2026-05-07 14:48 28.02377 117.50763 32090 ft 438 kts 41°
2026-05-07 14:48 28.06616 117.55730 32075 ft 439 kts 41°
2026-05-07 14:49 28.10890 117.60703 32075 ft 439 kts 41°
2026-05-07 14:49 28.15153 117.65681 32075 ft 440 kts 41°
2026-05-07 14:50 28.19388 117.70629 32076 ft 440 kts 41°
2026-05-07 14:50 28.23649 117.75612 32077 ft 440 kts 41°
2026-05-07 14:51 28.27915 117.80610 32077 ft 440 kts 41°
2026-05-07 14:51 28.32152 117.85578 32078 ft 440 kts 41°
2026-05-07 14:52 28.36402 117.90569 32077 ft 439 kts 41°
2026-05-07 14:52 28.40659 117.95572 32076 ft 439 kts 41°
2026-05-07 14:53 28.44825 118.00676 32083 ft 440 kts 42°
2026-05-07 14:53 28.48999 118.05760 32086 ft 440 kts 43°
2026-05-07 14:54 28.53126 118.10882 32087 ft 440 kts 43°
2026-05-07 14:54 28.57280 118.15996 32089 ft 440 kts 43°
2026-05-07 14:55 28.61422 118.21125 32095 ft 440 kts 43°
2026-05-07 14:55 28.65571 118.26259 32087 ft 441 kts 42°
2026-05-07 14:56 28.69704 118.31383 32093 ft 440 kts 42°
2026-05-07 14:56 28.73848 118.36527 32094 ft 440 kts 42°
2026-05-07 14:57 28.77989 118.41672 32098 ft 440 kts 42°
2026-05-07 14:57 28.82129 118.46823 32098 ft 440 kts 42°
2026-05-07 14:58 28.86248 118.51955 32103 ft 441 kts 42°
2026-05-07 14:58 28.90394 118.57129 32104 ft 441 kts 42°
2026-05-07 14:59 28.94544 118.62311 32110 ft 442 kts 42°
2026-05-07 14:59 28.98685 118.67491 32104 ft 442 kts 42°
2026-05-07 15:00 29.02836 118.72688 32108 ft 442 kts 42°
2026-05-07 15:00 29.06960 118.77860 32120 ft 444 kts 41°
2026-05-07 15:01 29.11112 118.83074 32118 ft 443 kts 41°
2026-05-07 15:01 29.15264 118.88294 32110 ft 442 kts 41°
2026-05-07 15:02 29.19402 118.93499 32119 ft 443 kts 42°
2026-05-07 15:02 29.23542 118.98718 32113 ft 442 kts 43°
2026-05-07 15:03 29.27676 119.03933 32120 ft 443 kts 41°
2026-05-07 15:03 29.31794 119.09127 32120 ft 443 kts 41°
2026-05-07 15:04 29.35929 119.14356 32124 ft 442 kts 41°
2026-05-07 15:04 29.40066 119.19597 32121 ft 443 kts 42°
2026-05-07 15:05 29.44175 119.24817 32133 ft 443 kts 41°
2026-05-07 15:05 29.48308 119.30069 32112 ft 443 kts 41°
2026-05-07 15:06 29.52437 119.35327 32113 ft 443 kts 41°
2026-05-07 15:06 29.56541 119.40555 32117 ft 443 kts 41°
2026-05-07 15:07 29.60672 119.45814 32118 ft 443 kts 41°
2026-05-07 15:07 29.64798 119.51087 32134 ft 443 kts 41°
2026-05-07 15:08 29.68889 119.56383 32123 ft 443 kts 41°
2026-05-07 15:08 29.72991 119.61673 32131 ft 442 kts 41°
2026-05-07 15:09 29.77105 119.66886 32134 ft 438 kts 36°
2026-05-07 15:09 29.79456 119.69039 32154 ft 428 kts 24°
2026-05-07 15:09 29.82056 119.70668 32149 ft 418 kts 15°
2026-05-07 15:10 29.87339 119.73280 32159 ft 418 kts 17°
2026-05-07 15:10 29.92415 119.76748 32159 ft 427 kts 25°
2026-05-07 15:11 29.97477 119.80250 32158 ft 422 kts 20°
2026-05-07 15:11 30.02597 119.83622 32162 ft 425 kts 22°
2026-05-07 15:12 30.07676 119.87103 32163 ft 423 kts 21°
2026-05-07 15:12 30.12751 119.90498 32163 ft 424 kts 22°
2026-05-07 15:13 30.17839 119.93959 32164 ft 424 kts 21°
2026-05-07 15:13 30.22927 119.97394 32164 ft 423 kts 22°
2026-05-07 15:14 30.28017 120.00850 32166 ft 423 kts 22°
2026-05-07 15:14 30.33100 120.04298 32170 ft 423 kts 22°
2026-05-07 15:15 30.38188 120.07757 32170 ft 423 kts 22°
2026-05-07 15:15 30.43237 120.11193 32170 ft 423 kts 22°
2026-05-07 15:16 30.48323 120.14658 32173 ft 423 kts 22°
2026-05-07 15:16 30.53403 120.18125 32169 ft 423 kts 22°
2026-05-07 15:17 30.58486 120.21601 32173 ft 423 kts 22°
2026-05-07 15:17 30.63537 120.25053 32176 ft 423 kts 22°
2026-05-07 15:18 30.68604 120.28525 32166 ft 423 kts 21°
2026-05-07 15:18 30.73670 120.31999 32176 ft 422 kts 21°
2026-05-07 15:19 30.78727 120.35472 32180 ft 422 kts 21°
2026-05-07 15:19 30.83761 120.38933 32177 ft 422 kts 21°
2026-05-07 15:20 30.88823 120.42418 32167 ft 423 kts 22°
2026-05-07 15:20 30.91232 120.44445 32185 ft 434 kts 33°
2026-05-07 15:20 30.93354 120.46997 32175 ft 444 kts 44°
2026-05-07 15:21 30.95103 120.50003 32177 ft 453 kts 56°
2026-05-07 15:21 30.96415 120.53381 32192 ft 460 kts 67°
2026-05-07 15:21 30.97229 120.57001 32170 ft 465 kts 78°
2026-05-07 15:21 30.97516 120.60752 32185 ft 467 kts 89°
2026-05-07 15:22 30.97146 120.68277 32174 ft 467 kts 92°
2026-05-07 15:22 30.97361 120.75818 32179 ft 464 kts 77°
2026-05-07 15:23 30.99269 120.82928 32173 ft 458 kts 63°
2026-05-07 15:23 31.01359 120.89921 32175 ft 463 kts 71°
2026-05-07 15:24 31.02914 120.97215 32156 ft 462 kts 70°
2026-05-07 15:24 31.04788 121.04378 32161 ft 461 kts 70°
2026-05-07 15:25 31.06489 121.11608 32158 ft 462 kts 71°
2026-05-07 15:25 31.08344 121.18731 32165 ft 461 kts 69°
2026-05-07 15:26 31.10172 121.25919 32155 ft 461 kts 70°
2026-05-07 15:26 31.12053 121.33063 32191 ft 461 kts 69°